RH
89 96 94 92 93 93 98 96 90 84 81 79 78 72 64 58 57 46 43 36 22 19 11 9 16 28 30 23 25 20 16 16 14 15 14 13 15 16 23 21 19 21 20 20 18
81 91 99 100 100 96 95 99 100 94 88 78 78 78 75 64 59 54 38 19 13 15 18 24 25 25 20 21 23 19 16 15 11 12 13 12 16 14 17 14 16 18 17 17 17
57 71 92 91 92 98 100 100 98 98 95 87 76 76 76 70 53 27 20 14 15 14 25 25 25 24 19 22 19 17 20 15 16 18 14 13 14 15 14 16 16 17 17 17 17
39 38 49 82 93 100 100 100 100 100 100 98 94 92 79 60 58 25 19 16 12 16 28 27 26 22 19 20 17 17 16 15 14 14 18 15 15 14 14 14 14 15 16 17 17
31 30 31 40 46 87 100 100 100 100 100 99 93 93 84 48 44 42 33 21 22 18 28 26 21 18 16 13 14 20 13 13 14 15 15 14 14 15 15 16 16 16 18 17 16
25 24 26 33 39 70 88 100 99 99 99 99 90 94 71 66 59 57 39 22 25 27 28 24 20 17 14 12 13 14 17 16 19 19 18 19 15 16 17 16 17 17 17 16 16
22 22 26 30 34 98 94 100 95 100 94 100 97 91 93 71 64 60 48 24 39 35 28 23 20 19 16 17 16 19 20 16 17 17 15 18 18 17 18 17 17 16 16 16 17
22 21 26 33 59 96 97 99 98 100 93 100 97 93 88 68 61 57 48 34 25 40 33 25 27 25 25 20 21 21 20 23 16 16 17 20 20 16 15 16 14 15 16 18 18
25 21 24 34 90 93 99 98 97 99 100 100 92 88 80 62 56 52 51 43 34 44 37 39 33 28 29 27 23 22 23 22 19 19 18 20 19 14 16 16 16 16 16 18 23
23 25 41 48 99 94 99 96 100 100 100 93 92 99 78 60 48 37 40 43 33 28 41 41 35 29 27 24 32 25 24 21 22 17 19 19 18 15 12 14 18 17 18 24 34
33 47 90 91 98 100 97 100 99 100 100 83 74 64 56 48 42 45 45 46 30 28 36 33 37 32 26 23 22 22 21 22 19 17 22 19 15 13 15 17 18 17 25 34 43
75 99 96 91 99 95 100 100 93 86 77 82 79 75 72 67 50 43 48 36 25 26 29 36 45 29 22 21 24 25 25 23 18 16 16 18 19 17 16 16 16 19 35 44 47
100 99 95 99 98 100 98 100 98 92 86 66 66 71 66 69 63 48 45 36 31 32 25 50 39 25 23 28 31 27 24 22 19 20 22 24 23 18 17 18 30 36 45 51 52
92 93 99 100 100 99 100 99 99 95 99 49 57 58 64 67 61 58 48 41 47 59 48 58 40 40 32 31 26 28 19 19 23 29 27 22 21 18 16 24 31 39 47 51 56
92 97 100 93 97 100 97 99 98 79 90 33 40 44 50 58 41 46 54 42 47 46 53 56 44 52 57 31 23 26 22 29 26 30 29 25 28 15 17 24 31 37 51 57 62
99 99 99 100 100 98 100 98 85 95 92 42 30 39 46 49 42 39 56 47 51 87 89 66 57 60 56 50 42 27 32 30 30 30 39 25 24 16 21 21 29 43 56 64 66
100 100 100 100 97 100 97 97 97 94 40 41 39 44 40 37 41 39 64 61 77 94 86 61 55 31 31 36 35 39 36 49 50 46 36 19 22 16 21 31 36 51 60 66 68
100 99 100 98 98 97 98 98 95 69 41 23 25 30 47 33 36 36 61 72 54 40 41 51 55 29 25 28 31 39 32 45 52 35 26 29 29 37 50 55 62 64 66 68 67
96 97 100 100 100 100 98 93 83 56 42 38 34 50 42 32 27 30 38 44 33 31 40 40 42 31 27 27 29 30 36 23 33 32 34 24 28 54 64 65 62 61 63 65 66
98 100 100 100 100 100 98 76 57 36 32 34 50 80 56 31 33 34 34 29 32 32 30 37 47 34 26 26 24 34 27 48 42 46 40 22 22 28 63 60 48 50 58 65 68
76 74 100 100 100 99 85 57 48 40 34 45 51 67 66 40 33 61 38 38 38 40 35 37 34 37 28 32 28 28 38 50 46 44 44 38 34 57 56 50 50 48 61 70 73
90 81 99 99 100 98 69 49 46 42 40 44 56 57 68 49 65 60 51 43 54 47 45 36 32 31 33 36 28 25 36 35 42 37 43 57 41 50 53 53 53 51 65 74 80
95 95 100 99 93 74 55 47 45 44 42 53 56 61 42 54 46 67 72 69 60 51 44 32 33 44 36 37 35 36 41 40 43 41 42 44 35 57 60 45 49 62 65 73 81
76 90 99 99 98 68 61 54 52 42 42 45 51 62 53 49 38 47 50 46 52 48 55 34 28 25 25 37 37 47 42 35 44 57 36 31 22 38 28 18 25 52 70 72 79
76 73 56 88 82 68 55 47 51 49 46 42 52 70 88 54 45 47 41 47 44 49 43 37 32 32 35 36 34 35 35 31 31 26 35 18 18 18 29 42 44 68 72 79 92
97 57 60 45 53 63 63 49 45 46 44 45 56 43 50 64 46 46 40 37 37 40 41 43 53 42 35 33 34 36 27 26 27 25 23 23 29 38 48 63 77 80 82 85 92
92 81 54 54 48 63 53 44 42 39 46 52 42 41 41 42 39 39 38 37 37 37 42 39 54 43 25 33 32 30 31 26 24 25 41 54 52 52 59 85 79 85 90 93 98
Wind_Speed
24 22 23 23 24 24 24 24 25 24 24 25 26 25 24 26 27 26 23 18 13 12 14 12 8 9 11 11 10 9 8 13 20 12 11 4 10 4 3 9 10 9 11 15 17
31 27 24 25 24 24 26 25 26 25 26 26 29 28 27 28 28 32 17 8 5 5 10 12 13 13 11 12 9 13 12 15 12 11 11 11 12 12 10 14 14 18 16 12 12
32 30 29 29 29 27 28 27 27 27 28 28 28 30 27 26 22 5 2 3 2 5 10 10 10 12 13 11 15 11 18 16 10 15 13 15 17 16 17 16 19 18 16 14 12
34 33 32 33 34 30 31 30 29 29 30 30 31 31 29 19 9 4 6 6 4 5 10 11 11 12 10 14 18 12 18 18 16 15 18 16 19 19 18 22 19 17 17 15 13
34 35 34 34 33 30 32 33 32 30 30 28 30 29 27 10 16 22 16 11 11 9 11 12 14 14 13 10 14 18 16 16 18 17 19 19 21 21 21 20 17 15 11 13 11
31 33 34 33 32 29 31 29 34 30 29 28 29 27 20 16 18 24 17 22 22 19 17 18 13 16 14 14 16 3 13 14 11 17 19 17 18 17 14 14 12 11 10 8 8
34 32 33 34 31 28 30 29 32 29 29 26 24 21 19 26 22 24 23 18 17 19 21 20 20 18 10 13 23 15 16 16 18 20 16 13 19 20 20 16 12 10 9 7 6
36 34 32 33 29 27 30 30 27 26 26 24 20 13 16 16 17 26 28 25 22 19 19 14 17 20 17 11 8 11 14 14 5 14 14 12 13 4 5 10 13 10 9 8 7
36 36 32 30 28 25 29 25 23 25 26 20 15 8 17 11 14 17 24 22 20 14 16 10 14 21 15 16 15 16 15 16 10 12 6 14 9 7 7 8 13 13 12 8 5
36 35 30 26 25 29 24 26 21 24 18 10 8 6 17 17 8 8 10 12 16 17 15 16 11 12 16 16 19 19 19 16 14 8 12 12 13 10 20 15 14 14 9 6 5
34 28 25 24 27 33 27 28 9 8 15 16 10 14 9 9 10 12 12 12 17 17 21 22 12 24 24 22 21 10 15 14 8 8 6 15 17 16 16 16 15 13 8 4 2
26 22 21 24 32 27 27 31 14 6 8 20 29 33 28 11 11 15 14 12 15 19 19 14 25 25 18 18 20 22 19 19 15 16 11 14 16 13 15 16 10 9 9 4 2
19 18 19 25 28 30 32 33 24 20 2 19 25 26 28 23 30 29 23 17 15 16 18 20 19 10 21 18 19 21 21 16 15 5 12 13 18 14 6 8 9 9 5 2 3
10 14 23 31 25 31 35 30 24 10 4 8 7 8 13 12 12 32 27 20 10 21 17 11 20 19 15 23 22 22 16 15 12 9 10 6 4 12 8 11 10 9 5 2 5
14 18 28 25 27 32 29 24 16 9 6 2 6 3 8 17 8 10 35 24 20 13 14 16 21 24 19 16 16 19 7 14 15 13 13 15 7 6 13 10 12 9 5 3 7
19 26 32 35 29 29 26 23 18 5 9 6 7 9 11 19 10 3 22 16 7 1 6 14 2 5 15 17 16 9 6 10 10 11 13 16 12 10 13 11 11 9 5 6 11
31 38 37 33 27 26 32 24 2 6 3 7 5 8 13 8 8 9 17 13 9 6 10 13 19 18 14 15 14 21 12 6 8 8 12 2 10 4 10 6 5 6 5 9 12
30 18 14 9 18 23 32 3 9 1 7 1 3 6 8 7 9 14 18 16 18 14 6 9 7 19 9 15 10 22 19 9 10 11 10 6 8 6 10 13 11 8 6 9 13
11 13 11 16 25 35 13 4 2 6 2 4 7 8 11 9 6 15 17 18 15 9 8 13 8 4 4 5 6 15 19 17 9 5 6 8 7 8 9 8 6 6 7 10 13
15 12 17 29 31 24 3 4 7 4 2 4 9 2 6 10 8 11 12 3 7 1 7 1 5 4 5 5 4 6 8 7 8 12 15 12 10 3 8 5 5 6 7 8 12
12 8 21 15 25 9 5 5 5 4 2 3 4 4 2 4 6 3 7 5 1 3 5 7 6 5 3 2 2 4 6 4 4 5 7 11 2 4 8 5 5 7 9 12 14
9 4 24 19 4 3 8 5 2 4 6 3 2 3 4 4 5 6 5 3 3 5 6 5 2 4 2 3 2 3 2 3 5 8 4 6 6 4 5 5 7 8 9 10 12
9 6 17 19 6 8 6 7 8 6 8 6 4 3 1 6 2 10 4 3 2 5 5 2 2 3 3 1 1 2 1 2 2 1 9 9 3 5 3 2 1 7 9 9 10
8 5 6 11 3 5 10 11 10 10 6 4 4 3 3 5 2 10 10 4 5 4 6 1 3 5 5 3 4 4 7 4 2 3 4 9 13 4 8 15 16 1 5 7 9
7 5 10 8 11 10 9 10 14 8 7 7 6 5 4 5 4 6 6 10 5 0 3 1 3 2 4 4 2 2 6 7 10 10 6 9 11 14 16 18 10 1 4 5 9
7 5 9 4 15 14 9 9 13 9 8 9 4 6 10 4 3 8 10 7 5 3 3 2 3 1 2 3 4 8 9 10 11 12 14 15 16 11 20 6 2 2 5 6 9
6 4 6 11 13 11 12 9 13 10 2 4 6 6 9 9 11 10 9 7 7 6 4 3 4 3 2 2 1 7 5 10 9 7 7 11 12 17 15 3 4 5 8 7 9
Wind_Direction
280 283 287 287 288 292 293 295 297 301 306 310 314 314 315 310 311 311 303 287 282 251 231 231 200 186 188 207 212 220 245 248 247 253 260 228 251 203 265 258 262 255 268 287 298
279 270 274 278 285 286 287 290 292 294 298 301 304 307 312 313 315 310 297 269 276 234 200 187 182 177 198 214 207 217 238 259 276 268 258 261 246 272 270 263 262 275 276 286 291
280 273 267 270 274 279 288 284 288 290 293 295 298 300 303 313 323 290 223 241 262 155 176 186 189 192 219 218 210 217 243 268 247 259 261 265 266 265 263 270 266 279 283 290 287
279 277 273 266 266 269 278 283 286 287 291 293 295 295 297 303 292 288 263 239 225 174 175 179 189 200 232 217 224 247 236 257 250 256 254 257 267 267 268 268 274 274 278 283 283
279 278 276 273 270 267 273 278 284 289 290 294 297 301 301 267 247 280 272 255 245 220 203 202 212 224 234 234 233 240 254 251 250 247 250 264 262 264 266 268 273 271 268 278 281
280 278 276 272 268 264 264 274 278 284 292 297 300 306 295 256 265 273 263 253 254 244 234 225 231 238 273 241 233 276 249 251 248 240 246 252 255 246 251 264 258 249 260 258 276
281 277 271 268 270 257 264 264 269 281 289 295 300 300 272 257 271 269 268 249 242 239 242 242 239 230 247 246 235 254 253 244 243 245 239 250 256 246 254 260 255 224 248 259 277
280 281 271 260 257 247 255 257 267 276 284 292 293 291 263 284 269 262 248 241 238 245 240 238 220 231 240 248 225 233 240 249 194 224 227 215 260 196 225 221 228 257 254 269 290
279 280 273 256 239 235 247 255 262 272 278 286 288 275 269 270 252 260 248 242 234 233 228 234 206 213 216 237 242 221 251 222 230 206 190 211 255 256 193 217 253 261 266 282 288
276 277 271 251 227 228 241 248 253 258 260 261 244 246 249 247 231 238 226 221 214 213 220 220 213 218 220 218 231 237 230 249 235 179 226 223 241 248 271 262 250 259 268 255 269
272 269 264 219 220 218 227 220 216 244 212 217 233 227 280 280 271 246 234 189 194 196 208 204 212 223 225 225 239 285 267 248 205 221 262 253 257 254 249 251 243 248 203 208 295
269 261 252 203 219 229 224 218 216 193 266 246 249 253 252 269 267 225 191 175 189 213 218 210 231 240 232 240 238 247 249 254 264 259 244 259 254 242 248 248 244 184 167 152 327
264 249 203 206 222 213 228 218 242 234 284 274 246 250 251 233 244 237 201 200 193 206 213 217 248 236 250 237 231 237 245 252 254 212 234 263 261 237 201 169 159 147 139 129 20
230 202 203 207 203 221 207 217 219 219 240 259 205 251 211 211 259 231 217 204 198 213 198 233 247 290 272 239 228 237 221 244 250 249 253 194 262 174 177 171 182 163 164 82 20
205 207 207 210 203 198 204 208 195 166 276 166 168 167 181 184 328 209 210 208 215 199 181 206 200 195 234 234 223 247 230 233 241 250 261 238 251 173 177 181 175 163 130 70 13
207 205 204 195 202 200 193 166 148 171 230 193 169 177 178 217 239 349 187 214 196 191 259 238 253 182 216 236 252 260 238 235 239 240 244 245 227 172 188 188 146 137 104 25 4
199 194 187 187 172 170 161 140 144 231 152 182 212 196 213 208 223 209 180 177 173 184 206 214 220 218 208 213 204 215 216 211 226 218 242 181 226 208 134 120 103 110 57 14 2
140 134 131 131 157 164 156 102 222 282 218 13 290 245 226 209 228 206 185 193 220 235 222 210 211 212 187 231 202 197 203 218 214 227 232 147 230 114 94 91 94 76 33 5 359
184 179 184 171 169 165 149 196 215 200 256 273 285 286 216 211 237 202 199 207 198 218 226 195 203 167 187 209 229 193 217 241 279 270 272 203 149 113 113 109 101 61 18 6 1
158 140 157 164 163 168 213 202 186 200 290 257 226 263 258 205 201 188 177 143 175 236 290 56 139 190 143 192 112 256 169 202 219 245 241 239 241 185 141 114 71 44 21 11 1
133 125 166 158 165 174 218 193 178 217 273 297 201 166 241 293 244 144 182 126 91 97 68 31 269 150 217 335 61 169 191 231 280 276 271 270 251 90 113 80 40 31 18 7 358
157 139 177 160 166 208 212 198 178 202 224 204 116 168 145 277 190 136 185 50 9 47 131 206 273 146 114 25 286 282 277 270 251 220 255 295 285 142 116 64 9 11 8 357 354
138 120 169 175 195 201 210 205 199 224 206 205 149 204 197 204 154 129 152 316 184 180 214 199 141 185 216 198 27 238 128 133 140 238 253 261 268 149 124 246 69 337 346 350 355
167 146 156 196 213 223 196 201 199 213 196 200 157 124 252 166 225 150 148 147 157 142 64 219 179 268 253 57 102 174 173 164 169 225 286 244 291 221 289 307 318 305 328 346 8
185 186 176 190 200 206 200 201 194 177 193 195 154 174 203 175 123 140 133 130 104 75 66 38 182 186 87 110 133 193 213 221 238 247 254 288 299 303 316 317 338 1 9 14 22
174 170 179 202 183 195 182 213 198 173 178 185 208 200 176 216 224 177 156 171 167 119 103 5 128 155 231 245 258 264 255 251 250 259 265 274 277 360 332 347 52 40 46 20 22
208 201 191 149 185 187 197 220 199 166 139 194 236 160 139 106 93 96 97 98 120 143 124 136 141 163 194 139 255 254 276 263 244 250 288 284 337 329 318 180 46 51 50 34 23